AO-07 1 07530U 74089B 22202.50757197 -.00000027 00000-0 12004-3 0 9992 2 07530 101.9058 182.4875 0012174 338.8273 141.7699 12.53655959181732 UO-11 1 14781U 84021B 22202.44140127 .00000814 00000-0 10444-3 0 9996 2 14781 97.6186 188.3298 0007694 200.1062 159.9851 14.83725771 45086 LO-19 1 20442U 90005G 22202.45250080 .00000121 00000-0 60734-4 0 9996 2 20442 98.7957 167.8372 0012867 70.7790 289.4785 14.33072313698033 HUBBLE 1 20580U 90037B 22202.57359010 .00002413 00000-0 13125-3 0 9997 2 20580 28.4705 302.7002 0002803 47.7292 337.3123 15.10696862571381 MET-2/21 1 22782U 93055A 22202.48140156 .00000005 00000-0 -83253-5 0 9992 2 22782 82.5500 347.2278 0021104 251.0104 169.7887 13.83856967458714 AO-27 1 22825U 93061C 22202.51554197 .00000057 00000-0 39867-4 0 9992 2 22825 98.8849 234.2699 0007654 318.3432 41.7165 14.30181795503021 IO-26 1 22826U 93061D 22202.32067841 .00000075 00000-0 46614-4 0 9995 2 22826 98.8793 233.9482 0008008 303.7294 56.3124 14.30528652503501 FO-29 1 24278U 96046B 22202.29883024 -.00000016 00000-0 19333-4 0 9993 2 24278 98.5150 221.3349 0350009 195.3172 163.7155 13.53117841280183 NOAA-15 1 25338U 98030A 22202.79773808 .00000158 00000-0 84273-4 0 9990 2 25338 98.6421 231.8811 0010136 191.0771 169.0187 14.26152938258169 GO-32 1 25397U 98043D 22202.44240372 .00000050 00000-0 41459-4 0 9996 2 25397 98.8191 153.0038 0001903 45.7915 314.3419 14.23762586248269 ISS 1 25544U 98067A 22202.89296957 .00009899 00000-0 18066-3 0 9992 2 25544 51.6421 164.6862 0005724 27.8461 82.9663 15.50079132350566 NO-44 1 26931U 01043C 22202.49622120 .00000099 00000-0 69516-4 0 9992 2 26931 67.0526 330.5264 0007163 259.2279 100.8016 14.30718546 86273 SO-50 1 27607U 02058C 22202.46594824 .00000731 00000-0 12068-3 0 9998 2 27607 64.5530 197.8149 0080017 287.8928 71.3461 14.76173786 53398 CO-55 1 27844U 03031E 22202.47126605 .00000223 00000-0 11966-3 0 9994 2 27844 98.6782 209.6434 0010092 10.9142 349.2253 14.22470205988701 CO-57 1 27848U 03031J 22202.44487104 .00000191 00000-0 10598-3 0 9993 2 27848 98.6828 210.1300 0010240 24.7787 335.3880 14.22025005988513 RS-22 1 27939U 03042A 22202.76533235 .00000907 00000-0 16905-3 0 9991 2 27939 98.1969 343.4848 0014191 99.8566 260.4257 14.67402340 6077 NOAA-18 1 28654U 05018A 22202.69715647 .00000154 00000-0 10731-3 0 9997 2 28654 98.9478 273.1042 0013452 231.6961 128.3002 14.12755898884909 CO-58 1 28895U 05043F 22202.34191996 .00000876 00000-0 17449-3 0 9993 2 28895 98.1108 333.2061 0017354 38.7642 321.4802 14.64397903892374 Falconsat-3 1 30776U 07006E 22202.55522697 .00038992 00000-0 54641-3 0 9999 2 30776 35.4315 36.5130 0003617 358.6809 1.3914 15.55725993854893 CO-65 1 32785U 08021C 22202.35214934 .00001789 00000-0 19225-3 0 9992 2 32785 97.6588 172.1319 0014060 117.9275 242.3368 14.89694434771530 AAUSAT2 1 32788U 08021F 22202.44653877 .00005130 00000-0 44156-3 0 9993 2 32788 97.5355 186.5635 0011698 20.1074 340.0607 14.97737098773526 DO-64 1 32789U 08021G 22202.31902438 .00011060 00000-0 60305-3 0 9993 2 32789 97.3377 227.4041 0009810 194.7810 165.3136 15.14501679777055 CO-66 1 32791U 08021J 22202.36144088 .00003113 00000-0 30555-3 0 9994 2 32791 97.6129 177.5980 0014493 78.6155 281.6692 14.92825037772256 RS-30 1 32953U 08025A 22202.82524938 .00000024 00000-0 10000-3 0 9996 2 32953 82.5035 162.5639 0018916 181.7159 178.3856 12.43111799642600 PRISM 1 33493U 09002B 22202.43410505 .00004888 00000-0 39642-3 0 9998 2 33493 98.2258 190.9338 0017704 66.7198 293.5885 15.00065292734078 NOAA-19 1 33591U 09005A 22202.77319313 .00000127 00000-0 93820-4 0 9993 2 33591 99.1457 237.6273 0014959 92.0133 268.2751 14.12590504693295 SRMSAT 1 37841U 11058D 22202.30328972 .00000375 00000-0 61283-4 0 9999 2 37841 19.9734 50.3063 0011822 356.1796 161.4713 14.10761965556252 HRBE 1 37855U 11061F 22202.30462140 .00006512 00000-0 28566-3 0 9999 2 37855 101.7131 339.3113 0151854 320.8530 38.1777 15.12855095586353 RS-40 1 38735U 12041C 22202.79552175 .00000046 00000-0 26448-3 0 9990 2 38735 82.4745 244.0766 0015977 298.3596 61.5872 12.42587150452788 ZACUBE-1 1 39417U 13066B 22202.85955236 .00002089 00000-0 25996-3 0 9994 2 39417 97.6376 172.8087 0056122 292.5823 66.9459 14.82459366468223 Delfi-N3xt 1 39428U 13066N 22202.37425298 .00001813 00000-0 28449-3 0 9993 2 39428 97.8143 135.2781 0117183 168.6775 191.7111 14.69288668463516 GOMX-1 1 39430U 13066Q 22202.78456109 .00001374 00000-0 25338-3 0 9992 2 39430 97.8079 108.0214 0147838 297.0003 61.6176 14.60272655461308 LO-74 1 39440U 13066AA 22202.46301478 .00002234 00000-0 30730-3 0 9994 2 39440 97.7271 158.5937 0079338 22.2962 338.1666 14.77109796465308 AO-73 1 39444U 13066AE 22202.44624410 .00002086 00000-0 25309-3 0 9991 2 39444 97.6257 174.8239 0054821 281.6479 77.8587 14.83560719466566 SPROUT 1 39770U 14029E 22202.60698258 .00006954 00000-0 70398-3 0 9998 2 39770 97.9460 319.7676 0008167 343.0939 17.0015 14.91253008442754 DTUSAT-2 1 40030U 14033W 22202.35780392 .00002620 00000-0 27690-3 0 9990 2 40030 97.9368 135.2641 0010386 307.6504 52.3770 14.90078465438694 EO-80 1 40032U 14033Y 22202.53213656 .00001943 00000-0 20699-3 0 9995 2 40032 97.9372 135.4531 0010395 308.1404 51.8876 14.90050720438691 HODOYOSHI-1 1 40299U 14070B 22202.87425870 .00005570 00000-0 21092-3 0 9999 2 40299 97.2412 269.9906 0012897 23.0092 65.9557 15.27235293428319 FIREBIRD FU3 1 40377U 15003B 22202.43469366 .00013336 00000-0 39146-3 0 9991 2 40377 99.0964 74.9440 0097195 269.9351 89.0747 15.30696397413613 FIREBIRD FU4 1 40378U 15003C 22202.45807722 .00013884 00000-0 40609-3 0 9990 2 40378 99.0968 75.1907 0097118 269.4654 89.5453 15.30797099413626 GRIFEX 1 40379U 15003D 22202.53955074 .00008528 00000-0 29934-3 0 9991 2 40379 99.1090 60.8310 0113374 313.2589 45.9223 15.23792876412823 XW-2A 1 40903U 15049E 22202.77764616 .00025846 00000-0 38795-3 0 9997 2 40903 97.1765 261.3846 0008904 4.3633 62.9520 15.54839680384595 XW-2C 1 40906U 15049H 22202.78726912 .00005686 00000-0 27144-3 0 9994 2 40906 97.4934 205.9307 0012296 235.4446 249.4780 15.19389332378131 XW-2D 1 40907U 15049J 22202.79538370 .00006598 00000-0 30827-3 0 9990 2 40907 97.4921 205.9494 0011569 230.1164 255.1755 15.20084163378183 LILACSAT-2 1 40908U 15049K 22202.74927370 .00003080 00000-0 16371-3 0 9999 2 40908 97.5178 202.9952 0013559 257.4111 188.7681 15.15970971377688 XW-2E 1 40909U 15049L 22202.74746514 .00010245 00000-0 42406-3 0 9998 2 40909 97.4646 210.5051 0010883 207.1661 239.5514 15.24079515378632 XW-2F 1 40910U 15049M 22202.82557961 .00010143 00000-0 42637-3 0 9998 2 40910 97.4722 209.7251 0011992 208.3420 277.3219 15.23549937378416 XW-2B 1 40911U 15049N 22202.75024238 .00006452 00000-0 30252-3 0 9995 2 40911 97.4907 206.4954 0011557 231.4298 215.6796 15.19967152378067 DCBB 1 40912U 15049P 22202.75195058 .00011902 00000-0 45445-3 0 9991 2 40912 97.4359 213.9990 0012728 172.6527 273.8696 15.26719555378980 TW-1A 1 40928U 15051D 22202.78073141 .00052782 00000-0 59294-3 0 9990 2 40928 97.0364 225.1875 0004577 239.8541 207.4426 15.62455203383595 IO-86 1 40931U 15052B 22202.62258008 .00000786 00000-0 20088-4 0 9992 2 40931 6.0017 285.3659 0013845 296.6783 63.1985 14.76832865368406 AO-85 1 40967U 15058D 22201.48303722 .00003357 00000-0 36319-3 0 4258 2 40967 64.7775 331.5120 0191147 189.8821 169.8558 14.77547331 65543 ATHENOXAT-1 1 41168U 15077C 22202.65554822 .00016284 00000-0 66166-3 0 9994 2 41168 14.9806 196.7612 0009722 1.8894 144.2002 15.21756216365522 ChubuSat-2 1 41338U 16012B 22202.23827944 .00002143 00000-0 15513-3 0 9994 2 41338 31.0017 168.7613 0013276 128.7205 231.4620 15.01485263352563 ChubuSat-3 1 41339U 16012C 22202.56180084 .00001871 00000-0 13435-3 0 9996 2 41339 31.0098 163.6277 0012881 139.8307 220.3291 15.01555166352617 Horyu-4 1 41340U 16012D 22202.23289395 .00003556 00000-0 24798-3 0 9993 2 41340 31.0037 143.3683 0013301 177.6796 182.3903 15.03496885352811 e-st@r-II 1 41459U 16025D 22202.46595056 .00018782 00000-0 79447-3 0 9995 2 41459 98.1886 10.1549 0144211 153.6267 207.2409 15.14211689342649 AAUSAT4 1 41460U 16025E 22202.70888389 .00028758 00000-0 10625-2 0 9994 2 41460 98.1819 16.9363 0123941 127.8874 233.3651 15.20674934343147 LO-87 1 41557U 16033B 22202.86986813 .00014212 00000-0 41444-3 0 9992 2 41557 97.3895 300.6428 0009098 249.4157 228.8739 15.35429418342668 NuSat2 1 41558U 16033C 22202.85470088 .00013712 00000-0 37666-3 0 9999 2 41558 97.4101 306.5205 0008889 237.5492 239.1504 15.37309038342937 Lapan A3 1 41603U 16040E 22202.78341407 .00001512 00000-0 71510-4 0 9994 2 41603 97.2039 238.3130 0014373 45.3595 43.8657 15.20758466337252 Pratham 1 41783U 16059A 22202.61557704 .00000463 00000-0 97621-4 0 9999 2 41783 97.9112 242.7985 0034719 67.1649 293.3215 14.63386285310621 TY-1 1 41844U 16066D 22202.87738635 .00014039 00000-0 46671-3 0 9999 2 41844 97.3884 214.7391 0013280 157.9842 321.6613 15.31206558316872 CAS-2T 1 41847U 16066G 22202.42422031 .00001311 00000-0 20413-3 0 9998 2 41847 98.5492 267.0554 0364775 108.2471 255.8769 14.38654141299231 EO-88 1 42017U 17008BX 22202.13479678 .00018657 00000-0 54017-3 0 9990 2 42017 97.2668 267.7769 0006542 119.9747 240.2147 15.35610680302249 CAS-4B 1 42759U 17034B 22202.86388248 .00003670 00000-0 22202-3 0 9994 2 42759 43.0165 142.9991 0007941 151.4997 305.2479 15.12112753281560 CAS-4A 1 42761U 17034D 22202.89912402 .00003898 00000-0 23443-3 0 9995 2 42761 43.0165 141.5684 0008264 154.1230 310.6309 15.12201582281578 NIUSat 1 42766U 17036B 22202.34898864 .00007955 00000-0 30330-3 0 9998 2 42766 97.1999 238.9654 0012937 199.0158 161.0600 15.26868643281973 Aalto 1 1 42775U 17036L 22202.07634108 .00007603 00000-0 29758-3 0 9999 2 42775 97.1955 238.5685 0011849 198.8846 161.1955 15.26023245281905 URSA MAIOR 1 42776U 17036M 22202.37233275 .00007865 00000-0 30221-3 0 9990 2 42776 97.1969 239.6159 0011574 196.2001 163.8870 15.26629388281982 Max Valier Sat 1 42778U 17036P 22202.32842591 .00008699 00000-0 32549-3 0 9995 2 42778 97.2031 242.2711 0010250 195.3957 164.6972 15.27492720282071 Pegasus 1 42784U 17036V 22202.59978823 .00010973 00000-0 38512-3 0 9993 2 42784 97.1971 243.4344 0009623 194.9409 165.1549 15.29539423282232 NUDATSat 1 42787U 17036Y 22202.60611264 .00022127 00000-0 65610-3 0 9994 2 42787 97.2004 247.7987 0008376 178.8662 181.2602 15.34811226282339 SUCHAI 1 1 42788U 17036Z 22201.11736389 .00018711 00000-0 61767-3 0 9999 2 42788 97.1975 243.7211 0008983 193.0526 167.0484 15.31413862282188 SKCUBE 1 42789U 17036AA 22202.37279330 .00011657 00000-0 39559-3 0 9993 2 42789 97.1976 244.3680 0009118 190.3261 169.7794 15.30623286282268 VZLUSAT 1 1 42790U 17036AB 22202.09528669 .00021080 00000-0 62887-3 0 9997 2 42790 97.1999 247.2624 0008391 180.1624 179.9618 15.34628303282400 VENTA 1 1 42791U 17036AC 22202.54970889 .00009919 00000-0 34391-3 0 9999 2 42791 97.1976 244.3984 0008847 190.5139 169.5919 15.29969761282279 Robusta 1B 1 42792U 17036AD 22202.38209451 .00013076 00000-0 43574-3 0 9994 2 42792 97.1974 244.9642 0008692 189.3697 170.7384 15.31188385282311 D-SAT 1 42794U 17036AF 22202.46716099 .00002839 00000-0 24271-3 0 9994 2 42794 97.4510 206.0835 0121932 332.0165 27.4533 14.92803793276551 TechnoSat 1 42829U 17042E 22202.55767421 .00001231 00000-0 12666-3 0 9995 2 42829 97.4182 54.7014 0012426 251.8403 108.1464 14.91937148273178 QIKCOM-1 1 42983U 98067NF 22202.62691999 .01041610 11946-4 39445-3 0 9991 2 42983 51.6198 357.1754 0008587 302.7489 57.2702 16.23442766270431 AO-91 1 43017U 17073E 22202.75087691 .00004524 00000-0 33843-3 0 9993 2 43017 97.6714 95.5376 0249554 75.6133 287.2640 14.81613050252197 PICSAT 1 43132U 18004X 22202.46237156 .00012792 00000-0 41313-3 0 9994 2 43132 97.3707 278.6688 0006368 227.2885 132.7821 15.32227542251612 AO-92 1 43137U 18004AC 22202.76591424 .00010782 00000-0 37383-3 0 9992 2 43137 97.3673 277.6235 0006352 231.1989 128.8685 15.29975688251585 TianYi 2 1 43155U 18008A 22202.77502128 .00007956 00000-0 41871-3 0 9996 2 43155 97.3502 260.0739 0016893 30.9050 108.3244 15.15770825248475 Zhou Enlai 1 43156U 18008B 22202.79452855 .00008155 00000-0 43191-3 0 9999 2 43156 97.3548 259.9773 0014187 33.1331 103.4088 15.15575144248404 TianYi 6 1 43158U 18008D 22202.12599762 .00006974 00000-0 38177-3 0 9992 2 43158 97.3502 257.2398 0013819 35.2238 18.1635 15.14456658248205 S-Net D 1 43186U 18014G 22202.69636245 .00002389 00000-0 20693-3 0 9990 2 43186 97.6563 107.7803 0010653 171.4378 188.7029 14.98025080244048 S-Net B 1 43187U 18014H 22202.69653695 .00002354 00000-0 20393-3 0 9998 2 43187 97.6560 107.7305 0010659 171.3797 188.7610 14.98023206244047 S-Net A 1 43188U 18014J 22202.29605026 .00002482 00000-0 21480-3 0 9990 2 43188 97.6564 107.4028 0010606 172.7976 187.3401 14.98020974243981 S-Net C 1 43189U 18014K 22202.69758605 .00002258 00000-0 19588-3 0 9994 2 43189 97.6560 107.7198 0010614 171.4522 188.6883 14.98020601242592 FMN 1 1 43192U 18015A 22202.90041212 .00032252 00000-0 80767-3 0 9996 2 43192 97.5389 348.9830 0009459 263.3467 255.2293 15.39973384248740 Shaonian Xing 1 43199U 18015H 22202.87693115 .00018172 00000-0 53231-3 0 9995 2 43199 97.5184 343.8328 0011209 277.1485 241.4401 15.35215355248724 SurfSat 1 43614U 18070B 22202.52773344 .00038142 00000-0 51345-3 0 9996 2 43614 93.0283 113.2442 0007461 223.9180 136.1492 15.57703539216364 CP-7 DAVE 1 43615U 18070C 22202.75895870 .00034121 00000-0 48540-3 0 9997 2 43615 93.0277 113.1623 0007882 229.7884 130.2691 15.56223348216360 ELFIN-B 1 43616U 18070D 22202.35032756 .00138766 00000-0 95001-3 0 9994 2 43616 93.0165 114.4531 0007543 184.2474 175.8736 15.74328253216673 ELFIN-A 1 43617U 18070E 22202.48324461 .00163923 00000-0 95336-3 0 9990 2 43617 93.0231 115.9548 0008053 172.7445 187.3949 15.77994001216755 CubeBel-1 1 43666U 18083E 22202.74524514 .00009889 00000-0 41299-3 0 9997 2 43666 97.4181 231.0475 0012217 205.4071 245.6501 15.23772425206707 Changshagaoxin 1 43669U 18083H 22202.84230432 .00009474 00000-0 41514-3 0 9994 2 43669 97.4136 227.0155 0008947 199.7207 333.3499 15.22180919206533 Ten-Koh 1 43677U 18084G 22202.36725282 .00001550 00000-0 16165-3 0 9994 2 43677 97.9685 332.7345 0016384 155.2084 204.9925 14.91176601202738 PO-101 1 43678U 18084H 22202.78247049 .00000572 00000-0 61878-4 0 9996 2 43678 97.9761 336.4593 0010092 164.7854 195.3691 14.92219310202975 IRVINE 01 1 43693U 18088D 22202.73460220 .00035123 00000-0 87278-3 0 9991 2 43693 85.0282 287.5673 0009793 346.8627 13.2368 15.40108067205499 QO-100 1 43700U 18090A 22202.30553319 .00000142 00000-0 00000-0 0 9996 2 43700 0.0131 82.1147 0001475 78.6630 274.0237 1.00273979 13367 Reaktor Hello World 1 43743U 18096AA 22202.44359332 .00011684 00000-0 34868-3 0 9998 2 43743 97.3519 282.1812 0013124 299.3776 60.6156 15.34703613203175 MinXSS-2 1 43758U 18099A 22202.46131418 .00003546 00000-0 30807-3 0 9999 2 43758 97.6217 269.5587 0016267 146.5705 213.6548 14.97535420198190 AO-95 1 43770U 18099N 22202.15605762 .00002326 00000-0 20887-3 0 9999 2 43770 97.6193 267.6314 0014629 156.8502 203.3382 14.96585196198054 RANGE-B 1 43772U 18099Q 22202.73754519 .00004254 00000-0 37138-3 0 9999 2 43772 97.6301 269.9525 0015044 141.3791 218.8510 14.97254399198162 RANGE-A 1 43773U 18099R 22202.75647288 .00001395 00000-0 12872-3 0 9997 2 43773 97.6113 267.0435 0014087 143.1127 217.1066 14.96140779198121 MOVE-II 1 43780U 18099Y 22202.41986516 .00004259 00000-0 36512-3 0 9997 2 43780 97.6242 269.0942 0013637 149.4024 210.7996 14.97971888198149 SNUSat 2 1 43782U 18099AA 22202.40005327 .00003330 00000-0 29575-3 0 9990 2 43782 97.6193 268.3395 0013672 141.2851 218.9353 14.96739531198117 SnugLite 1 43784U 18099AC 22202.49953224 .00002242 00000-0 19954-3 0 9990 2 43784 97.6151 268.0738 0015272 150.3708 209.8382 14.96963709198152 ITASat 1 1 43786U 18099AE 22202.74796034 .00002506 00000-0 22382-3 0 9996 2 43786 97.6225 269.1449 0015747 147.5144 212.7050 14.96716624198186 EAGLET 1 1 43790U 18099AJ 22202.43884285 .00001494 00000-0 13503-3 0 9993 2 43790 97.6204 269.3810 0013572 153.1205 207.0722 14.96859405197870 ESEO 1 43792U 18099AL 22202.45369327 .00001211 00000-0 11216-3 0 9998 2 43792 97.6161 268.5634 0013980 150.2731 209.9288 14.96247149197913 CSIM 1 43793U 18099AM 22202.44464360 .00004084 00000-0 34450-3 0 9997 2 43793 97.6224 270.0460 0013052 146.2630 213.9427 14.98637400197973 Astrocast 0.1 1 43798U 18099AS 22202.73996950 .00004445 00000-0 38223-3 0 9992 2 43798 97.6225 270.1840 0013782 128.4247 231.8215 14.97832113198240 JO-97 1 43803U 18099AX 22202.41991898 .00002654 00000-0 23364-3 0 9990 2 43803 97.6186 268.5901 0015484 147.7620 212.4552 14.97243009198151 Suomi 100 1 43804U 18099AY 22202.43999999 .00002610 00000-0 23048-3 0 9994 2 43804 97.6167 268.5252 0015399 150.0261 210.1846 14.97128549198166 Al Farabi 2 1 43805U 18099AZ 22202.88164286 .00004544 00000-0 39127-3 0 9990 2 43805 97.6202 269.4764 0015734 145.1476 215.0783 14.97750579198259 CHOMPTT 1 43855U 18104G 22202.50148826 .00007987 00000-0 28931-3 0 9998 2 43855 85.0347 28.4386 0017321 109.2959 251.0162 15.28055687199928 ISAT 1 43879U 18111D 22202.72912852 .00002975 00000-0 25545-3 0 9994 2 43879 97.6611 107.7208 0012196 200.6766 159.3965 14.98170041192784 UWE-4 1 43880U 18111E 22202.72894238 .00002756 00000-0 23615-3 0 9996 2 43880 97.6641 108.4426 0011383 201.5597 158.5147 14.98318316192836 Sparrow 1 43881U 18111F 22202.74274743 .00003378 00000-0 28709-3 0 9992 2 43881 97.6652 108.6943 0011784 195.5531 164.5331 14.98477738192847 Lume 1 1 43908U 18111AJ 22202.50468901 .00009604 00000-0 32194-3 0 9998 2 43908 97.1874 89.2462 0016799 316.9505 43.0421 15.30976677198603 FO-99 1 43937U 19003F 22202.80872496 .00014279 00000-0 46890-3 0 9994 2 43937 97.1286 234.8333 0021018 36.4021 323.8645 15.31460610195233 MYSat 1 1 44045U 18092F 22202.50144323 .00044941 00000-0 59754-3 0 9992 2 44045 51.6303 262.4229 0006440 247.0000 113.0313 15.57705687193175 AstroCast 0.2 1 44083U 19018F 22202.63552602 .00010130 00000-0 37811-3 0 9993 2 44083 97.3198 260.8558 0010195 15.5834 344.5717 15.27536081183702 AISTechSat 3 1 44103U 19018AB 22202.74337539 .00008145 00000-0 29952-3 0 9998 2 44103 97.3062 261.3184 0012241 22.7658 337.4122 15.28074792183881 AISat 1 1 44104U 19018AC 22202.18372828 .00007414 00000-0 20522-3 0 9999 2 44104 97.3949 285.4571 0051875 14.4222 345.8488 15.35914507184776 Prox-1 1 44339U 19036A 22202.47992539 .00003521 00000-0 74958-3 0 9995 2 44339 24.0016 338.6467 0010337 231.8090 128.1470 14.55234297163311 Oculus-ASR 1 44348U 19036K 22202.51571678 .00045305 -58952-5 39746-3 0 9994 2 44348 28.5030 316.4619 0227820 335.2768 23.7059 15.40232059169797 Armadillo 1 44352U 19036P 22202.15613853 .00273850 17785-4 78115-3 0 9999 2 44352 28.5168 228.4564 0094445 116.1169 244.9194 15.84634985170589 NO-104 1 44354U 19036R 22202.57996237 .00049390 -57033-5 40915-3 0 9996 2 44354 28.5247 301.1019 0217918 356.7109 3.2059 15.43311013169955 Move-IIb 1 44398U 19038N 22202.55019445 .00015611 00000-0 73782-3 0 9994 2 44398 97.6315 172.2142 0022322 13.9686 346.2158 15.19271041168212 SONATE 1 44400U 19038Q 22202.54333950 .00005736 00000-0 30941-3 0 9994 2 44400 97.6426 171.2038 0024456 19.0104 341.2030 15.14908201168094 BeeSat 9 1 44412U 19038AC 22202.15603659 .00008425 00000-0 42349-3 0 9993 2 44412 97.6367 171.6990 0020738 23.2754 336.9413 15.17323811167804 JAISAT-1 1 44419U 19038F 22202.46085804 .00008778 00000-0 43531-3 0 9995 2 44419 97.6369 172.8700 0019626 19.7315 340.4673 15.17804935168217 LightSail-2 1 44420U 19036AC 22202.59950684 .00065567 00000-0 76595-2 0 9990 2 44420 23.9997 267.1732 0014955 8.3888 351.6859 14.83607210162279 Taurus 1 1 44530U 19059C 22202.71612205 .00002020 00000-0 56490-3 0 9993 2 44530 98.5498 301.5613 0013630 23.6111 336.5719 14.47192023150808 Duchifat 3 1 44854U 19089C 22202.82803712 .00003699 00000-0 28807-3 0 9996 2 44854 36.9658 256.5306 0007104 142.0075 218.1173 15.01283089143101 OPS-SAT 1 44878U 19092F 22202.48703348 .00008098 00000-0 37250-3 0 9992 2 44878 97.4810 26.1540 0011396 215.4672 144.5806 15.20548285143362 TO-108 1 44881U 19093C 22202.74835335 .00000649 00000-0 88813-4 0 9994 2 44881 97.8924 281.4652 0016446 75.8575 284.4465 14.81765220139857 FloripaSat 1 1 44885U 19093G 22202.81850438 .00002110 00000-0 26403-3 0 9998 2 44885 97.8971 282.9075 0015828 81.7046 278.5967 14.83255582139948 RS-44 1 44909U 19096E 22202.51260968 .00000010 00000-0 43601-6 0 9997 2 44909 82.5197 207.6475 0216315 239.9595 117.9892 12.79713986119912 BY70-2 1 45857U 20042B 22202.77171859 .00007122 00000-0 94250-3 0 9995 2 45857 97.9547 279.2905 0010374 16.3483 343.8104 14.80199612110530 UPMSat 2 1 46276U 20061E 22202.44610163 .00003841 00000-0 18990-3 0 9993 2 46276 97.3900 272.4962 0002981 75.5828 284.5737 15.18418144104033 AmicalSat 1 46287U 20061R 22202.47697214 .00005778 00000-0 33098-3 0 9997 2 46287 97.4447 271.4065 0003580 135.8411 224.3106 15.12988187103617 SALSAT 1 46495U 20068K 22202.41360124 .00001545 00000-0 11412-3 0 9990 2 46495 97.7294 143.7295 0017062 156.8356 203.3643 15.04636003 99297 BY70-3 1 46839U 20079N 22202.88539853 .00025316 00000-0 56854-3 0 9993 2 46839 97.1967 274.5540 0005269 188.4035 261.3555 15.43336609 95550 CAPE 3 1 47309U 21002A 22202.50949447 .00008237 00000-0 33231-3 0 9993 2 47309 60.6819 236.4002 0026971 1.9549 358.1640 15.25279394 83640 AO-109 1 47311U 21002C 22202.48508639 .00007202 00000-0 28868-3 0 9998 2 47311 60.6846 234.0941 0022899 4.6421 355.4875 15.25753966 83656 MiTEE 1 1 47314U 21002F 22202.42432954 .00014530 00000-0 48551-3 0 9994 2 47314 60.6811 226.7680 0020283 355.2880 4.8016 15.31108984 83796 ExoCube 2 1 47319U 21002L 22202.49355547 .00007302 00000-0 29618-3 0 9990 2 47319 60.6831 235.2016 0024361 5.2381 354.8957 15.25309709 83603 UVSQ-SAT 1 47438U 21006AB 22202.40795608 .00005689 00000-0 29866-3 0 9994 2 47438 97.4351 260.7240 0012801 150.6324 209.5631 15.16044993 82425 YUSAT 1 1 47439U 21006AC 22202.43383047 .00007399 00000-0 38194-3 0 9992 2 47439 97.4359 260.8707 0012536 150.6153 209.5787 15.16542217 82433 SOMP 2b 1 47445U 21006AJ 22202.41354914 .00005482 00000-0 29073-3 0 9995 2 47445 97.4325 260.3669 0012376 154.2317 205.9534 15.15702574 82410 IDEASSat 1 47458U 21006AX 22202.39909546 .00005659 00000-0 30147-3 0 9993 2 47458 97.4412 260.8807 0011550 152.5026 207.6820 15.15540367 82407 CubeSX-Sirius-HSE 1 47951U 21022V 22202.80668105 .00004936 00000-0 32569-3 0 9995 2 47951 97.5271 101.6048 0022085 32.0952 10.0253 15.07707303 73179 CubeSX-HSE 1 47952U 21022W 22202.80149968 .00005470 00000-0 35993-3 0 9995 2 47952 97.5277 101.6218 0021760 31.8725 58.1599 15.07769683 73174 KSU-Cubesat 1 47954U 21022Y 22202.67746518 .00005255 00000-0 34372-3 0 9997 2 47954 97.5269 101.6149 0021418 32.0252 328.2273 15.08016713 72885 GRBAlpha 1 47959U 21022AD 22202.79003164 .00005533 00000-0 36377-3 0 9994 2 47959 97.5283 101.6508 0021604 32.7991 8.0650 15.07796241 71992 Orbicraft-Zorkiy 1 47960U 21022AE 22202.76943557 .00004904 00000-0 32155-3 0 9993 2 47960 97.5292 101.7780 0021815 32.3003 52.5497 15.07951384 72682 STECCO 1 47962U 21022AG 22202.79980758 .00008050 00000-0 49696-3 0 9996 2 47962 97.5256 102.5678 0016468 27.1242 13.4826 15.10046406 72051 DO-111 1 47963U 21022AH 22202.45185840 .00015504 00000-0 84316-3 0 9999 2 47963 97.5290 103.4309 0017487 22.5963 337.6034 15.14428229 72099 MO-110 1 47964U 21022AJ 22202.29824668 .00006672 00000-0 40797-3 0 9991 2 47964 97.5267 102.3507 0019149 25.3896 334.8271 15.10425858 71996 FEES 1 48082U 21022AL 22202.28308767 .00009826 00000-0 58891-3 0 9997 2 48082 97.5272 102.2813 0015201 23.1656 337.0256 15.11081464 71695 RamSat 1 48850U 98067SL 22202.27373207 .00096848 00000-0 61678-3 0 9990 2 48850 51.6347 144.2706 0002656 119.2186 240.9079 15.75638401 62654 TUBIN 1 48900U 21059X 22202.81914336 .00004350 00000-0 24201-3 0 9995 2 48900 97.5585 331.8541 0009701 354.7382 159.6372 15.14152489 59115 IT-SPINS 1 49017U 21013G 22202.81429756 .00008544 00000-0 32843-3 0 9992 2 49017 51.5983 235.1721 0007507 199.7071 160.3619 15.27188478 59032 LEDSAT 1 49069U 21073D 22202.73684631 .00004409 00000-0 28115-3 0 9994 2 49069 97.5232 274.9501 0027255 173.6788 186.4790 15.08916751 51001 CUTE 1 49263U 21088D 22202.14433681 .00004660 00000-0 34653-3 0 9991 2 49263 97.5854 269.3928 0019122 311.0721 48.8852 15.03320466 44488 Binar-1 1 49272U 98067SR 22202.34821481 .00112361 00000-0 68939-3 0 9995 2 49272 51.6306 147.7276 0005525 81.0924 279.0701 15.76411104 45007 Maya-3 1 49273U 98067SS 22202.12096451 .00579663 15684-3 11837-2 0 9996 2 49273 51.6236 140.8357 0003999 118.8592 241.2819 15.98823752 45075 Maya-4 1 49274U 98067ST 22202.11240554 .00468545 10058-3 11225-2 0 9998 2 49274 51.6265 141.5526 0004154 107.7867 252.3594 15.95954395 45067 CUAVA-1 1 49275U 98067SU 22202.84997713 .00239614 00000-0 95826-3 0 9991 2 49275 51.6304 141.0689 0005244 90.5355 6.0685 15.85319706 45086 TeikyoSat 4 1 49396U 21102B 22202.43123032 .00001346 00000-0 11067-3 0 9995 2 49396 97.5242 259.4161 0015684 133.7757 226.4768 15.00683864 38149 Z-Sat 1 49399U 21102E 22202.79283630 .00001920 00000-0 14767-3 0 9996 2 49399 97.5317 260.6346 0023725 111.5827 248.7929 15.02653568 38248 KOSEN 1 1 49402U 21102H 22202.43170205 .00002681 00000-0 19852-3 0 9990 2 49402 97.5287 260.4236 0023948 104.7443 255.6439 15.03750968 38213 HO-113 1 50466U 21131B 22202.81132163 .00000179 00000-0 73266-4 0 9997 2 50466 98.5800 280.0484 0005453 58.6747 301.4973 14.38511183 29859 Tevel 1 50999U 22002R 22202.79669215 .00007842 00000-0 41930-3 0 9992 2 50999 97.4790 269.3185 0009541 305.0788 150.2238 15.15308942 28621 Grizu-263a 1 51025U 22002AT 22202.43979789 .00011583 00000-0 57941-3 0 9990 2 51025 97.4962 269.7249 0010866 309.4060 50.6211 15.17534347 28593 NO-116 1 51031U 22002AZ 22202.43126799 .00008050 00000-0 41688-3 0 9998 2 51031 97.4914 269.4706 0011341 309.8640 50.1595 15.16417844 28589 IRIS-A 1 51044U 22002BN 22202.44955492 .00004369 00000-0 24615-3 0 9993 2 51044 97.4805 268.7172 0007805 314.3960 45.6631 15.13703767 28553 DELFI-PQ 1 51074U 22002CU 22202.45402075 .00009271 00000-0 45829-3 0 9998 2 51074 97.5045 270.2128 0012619 342.7548 17.3255 15.17992016 28614 SO-115 1 51080U 22002DA 22201.91790201 .00008722 00000-0 44355-3 0 9999 2 51080 97.5057 269.5812 0012625 345.3254 14.7611 15.17017579 28524 SO-114 1 51081U 22002DB 22201.91839561 .00008762 00000-0 44550-3 0 9994 2 51081 97.5049 269.5604 0012914 344.9271 15.1576 15.17021268 28525 OreSat0 1 52017U 22026K 22202.23912915 .00005869 00000-0 31135-3 0 9991 2 52017 97.5027 201.6558 0027986 153.8368 206.4285 15.15398246 19304 Planetum 1 1 52738U 22057G 22202.26789232 .00006314 00000-0 36865-3 0 9993 2 52738 97.5148 316.3746 0009579 61.7827 298.4370 15.12235323 8549 Foresail-1 1 52766U 22057AL 22202.54890415 .00004335 00000-0 24518-3 0 9994 2 52766 97.5247 316.8401 0014598 41.4814 318.7522 15.13508003 8590 SNUGLITE 2 1 52899U 22065F 22202.53244883 .00000641 00000-0 14803-3 0 9993 2 52899 98.0231 352.7665 0008421 160.3053 199.8480 14.58361864 2664 CTIM 1 52950U 22074G 22202.54041355 .00015903 00000-0 65738-3 0 9991 2 52950 45.0002 13.2448 0004001 329.0701 31.0039 15.23866974 2934 MTCube 2 1 53106U 22080B 22200.91061454 -.00000003 00000-0 00000+0 0 9996 2 53106 70.1487 75.1736 0007916 271.0195 89.0023 6.42551663 405 AstroBioCubeSat 1 53107U 22080C 22200.91487036 -.00000003 00000-0 00000-0 0 9996 2 53107 70.1605 75.1743 0011727 251.6089 108.1541 6.42111202 316 GREENCUBE 1 53109U 22080E 22202.31103295 -.00000003 00000-0 00000-0 0 9996 2 53109 70.1366 74.4927 0009058 242.0039 117.9712 6.42583738 383 CELESTA 1 53111U 22080G 22201.22212397 -.00000003 00000-0 00000-0 0 9992 2 53111 70.1472 75.0842 0008017 230.7865 129.1755 6.42529879 302 /EX